Private Wetterstation Wechselburg
Wetterdaten: Donnerstag, 07.04.2011
Datum Zeit Temp. +2m Bodentemp. Temp.+5cm Temp. Wind Windchill X Diff Temp. Feuchte +2m Feuchte +5cm Sonnenschein Luftdruck Regen Wind Richtung Richtung Sonnenschein UV Taupunkt Windchill Windben
07.04.2011 00:00 13,7 C 14,9 C 12,5 C 13,3 C 12,4 C 0,0 C 82 % 85 % 0 % 1023,4 hPa 0,0 l/m 0,0 km/h (0 Bft) NO 45 0 min 0,0 UV-I 10,7 C 12,4 C 0,0 km/h (0 Bft)
07.04.2011 00:08 13,5 C 14,7 C 12,5 C 13,1 C 12,2 C 0,0 C 82 % 85 % 0 % 1023,4 hPa 0,0 l/m 0,0 km/h (0 Bft) N 0 0 min 0,0 UV-I 10,5 C 12,2 C 0,0 km/h (0 Bft)
07.04.2011 00:15 13,4 C 14,9 C 12,4 C 13,0 C 12,2 C 0,0 C 82 % 86 % 0 % 1023,8 hPa 0,0 l/m 0,2 km/h (0 Bft) NO 45 0 min 0,0 UV-I 10,4 C 12,2 C 0,0 km/h (0 Bft)
07.04.2011 00:20 13,4 C 14,9 C 12,3 C 13,0 C 12,2 C 0,0 C 82 % 86 % 0 % 1023,8 hPa 0,0 l/m 0,2 km/h (0 Bft) O-NO 67 0 min 0,0 UV-I 10,4 C 12,2 C 0,0 km/h (0 Bft)
07.04.2011 00:25 13,5 C 14,9 C 12,3 C 13,1 C 12,2 C 0,0 C 82 % 86 % 0 % 1023,8 hPa 0,0 l/m 0,2 km/h (0 Bft) O-NO 67 0 min 0,0 UV-I 10,5 C 12,2 C 0,0 km/h (0 Bft)
07.04.2011 00:30 13,5 C 14,9 C 12,3 C 13,1 C 12,2 C 0,0 C 82 % 86 % 0 % 1023,8 hPa 0,0 l/m 0,0 km/h (0 Bft) O-NO 67 0 min 0,0 UV-I 10,5 C 12,2 C 0,0 km/h (0 Bft)
07.04.2011 00:35 13,2 C 14,9 C 12,3 C 12,8 C 12,1 C 0,0 C 83 % 86 % 0 % 1023,6 hPa 0,0 l/m 0,2 km/h (0 Bft) O 90 0 min 0,0 UV-I 10,4 C 12,1 C 1,8 km/h (1 Bft)
07.04.2011 00:40 13,2 C 14,8 C 12,3 C 12,8 C 12,1 C 0,0 C 83 % 86 % 0 % 1023,6 hPa 0,0 l/m 0,2 km/h (0 Bft) O 90 0 min 0,0 UV-I 10,4 C 12,1 C 0,0 km/h (0 Bft)
07.04.2011 00:45 13,1 C 14,9 C 12,2 C 12,7 C 12,0 C 0,0 C 83 % 86 % 0 % 1023,6 hPa 0,0 l/m 0,2 km/h (0 Bft) NO 45 0 min 0,0 UV-I 10,3 C 12,0 C 0,0 km/h (0 Bft)
07.04.2011 00:50 13,1 C 14,8 C 12,3 C 12,7 C 12,0 C 0,0 C 84 % 87 % 0 % 1023,6 hPa 0,0 l/m 0,0 km/h (0 Bft) N-NO 22 0 min 0,0 UV-I 10,5 C 12,0 C 0,0 km/h (0 Bft)
07.04.2011 00:55 13,1 C 14,8 C 12,1 C 12,7 C 12,0 C 0,0 C 84 % 87 % 0 % 1023,7 hPa 0,0 l/m 0,2 km/h (0 Bft) NO 45 0 min 0,0 UV-I 10,5 C 12,0 C 2,4 km/h (1 Bft)
07.04.2011 01:00 13,1 C 14,8 C 12,3 C 12,8 C 12,1 C 0,0 C 84 % 87 % 0 % 1023,7 hPa 0,0 l/m 0,6 km/h (0 Bft) NO 45 0 min 0,0 UV-I 10,5 C 12,1 C 1,8 km/h (1 Bft)
07.04.2011 01:09 13,1 C 14,7 C 12,3 C 12,8 C 12,3 C 0,0 C 84 % 87 % 0 % 1023,7 hPa 0,0 l/m 0,2 km/h (0 Bft) N 0 0 min 0,0 UV-I 10,5 C 12,3 C 0,0 km/h (0 Bft)
07.04.2011 01:15 13,2 C 14,7 C 12,3 C 12,9 C 12,4 C 0,0 C 84 % 87 % 0 % 1023,4 hPa 0,0 l/m 0,0 km/h (0 Bft) NW 315 0 min 0,0 UV-I 10,6 C 12,4 C 0,0 km/h (0 Bft)
07.04.2011 01:20 13,2 C 14,7 C 12,3 C 13,0 C 12,5 C 0,0 C 84 % 87 % 0 % 1023,4 hPa 0,0 l/m 0,0 km/h (0 Bft) N-NW 337 0 min 0,0 UV-I 10,6 C 12,5 C 0,0 km/h (0 Bft)
07.04.2011 01:25 13,2 C 14,6 C 12,3 C 13,0 C 12,7 C 0,0 C 84 % 87 % 0 % 1023,4 hPa 0,0 l/m 0,0 km/h (0 Bft) O-NO 67 0 min 0,0 UV-I 10,6 C 12,7 C 0,0 km/h (0 Bft)
07.04.2011 01:30 13,3 C 14,6 C 12,4 C 13,1 C 12,7 C 0,0 C 84 % 88 % 0 % 1023,4 hPa 0,0 l/m 0,0 km/h (0 Bft) W-SW 247 0 min 0,0 UV-I 10,7 C 12,7 C 0,0 km/h (0 Bft)
07.04.2011 01:35 13,3 C 14,5 C 12,5 C 13,2 C 13,0 C 0,0 C 84 % 88 % 0 % 1023,3 hPa 0,0 l/m 0,6 km/h (0 Bft) S 180 0 min 0,0 UV-I 10,7 C 13,0 C 3,9 km/h (1 Bft)
07.04.2011 01:40 13,5 C 14,5 C 12,7 C 13,4 C 13,2 C 0,0 C 84 % 88 % 0 % 1023,3 hPa 0,0 l/m 1,0 km/h (0 Bft) NO 45 0 min 0,0 UV-I 10,8 C 13,2 C 0,0 km/h (0 Bft)
07.04.2011 01:45 13,5 C 14,5 C 12,6 C 13,5 C 13,4 C 0,0 C 84 % 88 % 0 % 1023,3 hPa 0,0 l/m 0,6 km/h (0 Bft) NW 315 0 min 0,0 UV-I 10,8 C 13,4 C 2,9 km/h (1 Bft)
07.04.2011 01:50 13,5 C 14,5 C 12,7 C 13,5 C 13,5 C 0,0 C 84 % 88 % 0 % 1023,3 hPa 0,0 l/m 0,2 km/h (0 Bft) N-NO 22 0 min 0,0 UV-I 10,8 C 13,5 C 0,0 km/h (0 Bft)
07.04.2011 01:55 13,6 C 14,5 C 12,8 C 13,6 C 13,5 C 0,0 C 84 % 87 % 0 % 1023,1 hPa 0,0 l/m 0,3 km/h (0 Bft) SO 135 0 min 0,0 UV-I 10,9 C 13,5 C 2,1 km/h (1 Bft)
07.04.2011 02:00 13,6 C 14,5 C 12,9 C 13,6 C 13,6 C 0,0 C 84 % 87 % 0 % 1023,1 hPa 0,0 l/m 0,2 km/h (0 Bft) N-NO 22 0 min 0,0 UV-I 10,9 C 13,6 C 1,6 km/h (1 Bft)
07.04.2011 02:09 13,6 C 14,5 C 12,9 C 13,7 C 13,7 C 0,1 C 84 % 87 % 0 % 1023,1 hPa 0,0 l/m 0,2 km/h (0 Bft) N 0 0 min 0,0 UV-I 10,9 C 13,7 C 0,0 km/h (0 Bft)
07.04.2011 02:15 13,7 C 14,4 C 13,1 C 13,7 C 13,7 C 0,0 C 84 % 87 % 0 % 1022,9 hPa 0,0 l/m 0,0 km/h (0 Bft) O 90 0 min 0,0 UV-I 11,0 C 13,7 C 0,0 km/h (0 Bft)
07.04.2011 02:20 13,7 C 14,4 C 13,1 C 13,7 C 13,7 C 0,0 C 84 % 87 % 0 % 1022,9 hPa 0,0 l/m 0,0 km/h (0 Bft) NO 45 0 min 0,0 UV-I 11,0 C 13,7 C 0,0 km/h (0 Bft)
07.04.2011 02:25 13,7 C 14,4 C 13,1 C 13,7 C 13,7 C 0,0 C 84 % 87 % 0 % 1022,9 hPa 0,0 l/m 0,0 km/h (0 Bft) N-NO 22 0 min 0,0 UV-I 11,0 C 13,7 C 0,0 km/h (0 Bft)
07.04.2011 02:30 13,7 C 14,4 C 13,0 C 13,7 C 13,7 C 0,0 C 84 % 87 % 0 % 1022,9 hPa 0,0 l/m 0,0 km/h (0 Bft) O-NO 67 0 min 0,0 UV-I 11,0 C 13,7 C 1,9 km/h (1 Bft)
07.04.2011 02:35 13,8 C 14,3 C 13,1 C 13,8 C 13,8 C 0,0 C 84 % 87 % 0 % 1022,6 hPa 0,0 l/m 0,3 km/h (0 Bft) NW 315 0 min 0,0 UV-I 11,1 C 13,8 C 0,0 km/h (0 Bft)
07.04.2011 02:40 13,8 C 14,3 C 13,2 C 13,8 C 13,8 C 0,0 C 84 % 87 % 0 % 1022,6 hPa 0,0 l/m 0,6 km/h (0 Bft) W 270 0 min 0,0 UV-I 11,1 C 13,8 C 1,9 km/h (1 Bft)
07.04.2011 02:45 13,9 C 14,3 C 13,5 C 13,9 C 13,9 C 0,0 C 83 % 86 % 0 % 1022,6 hPa 0,0 l/m 0,3 km/h (0 Bft) W-NW 292 0 min 0,0 UV-I 11,1 C 13,9 C 0,0 km/h (0 Bft)
07.04.2011 02:50 13,9 C 14,3 C 13,4 C 13,9 C 13,8 C 0,0 C 83 % 86 % 0 % 1022,6 hPa 0,0 l/m 0,8 km/h (0 Bft) S-SO 157 0 min 0,0 UV-I 11,1 C 13,8 C 1,6 km/h (1 Bft)
07.04.2011 02:55 13,9 C 14,4 C 13,2 C 13,8 C 13,7 C 0,0 C 83 % 85 % 0 % 1022,6 hPa 0,0 l/m 1,1 km/h (1 Bft) O-SO 112 0 min 0,0 UV-I 11,1 C 13,7 C 5,3 km/h (1 Bft)
07.04.2011 03:00 13,8 C 14,4 C 13,1 C 13,7 C 13,4 C 0,0 C 83 % 85 % 0 % 1022,6 hPa 0,0 l/m 0,5 km/h (0 Bft) O-NO 67 0 min 0,0 UV-I 11,0 C 13,4 C 0,0 km/h (0 Bft)
07.04.2011 03:09 13,6 C 14,4 C 12,9 C 13,4 C 13,0 C 0,0 C 83 % 85 % 0 % 1022,6 hPa 0,0 l/m 0,5 km/h (0 Bft) N 0 0 min 0,0 UV-I 10,8 C 13,0 C 0,0 km/h (0 Bft)
07.04.2011 03:15 13,5 C 14,3 C 12,8 C 13,3 C 12,9 C 0,0 C 83 % 86 % 0 % 1022,2 hPa 0,0 l/m 0,2 km/h (0 Bft) N-NO 22 0 min 0,0 UV-I 10,7 C 12,9 C 0,0 km/h (0 Bft)
07.04.2011 03:20 13,5 C 14,4 C 12,7 C 13,3 C 12,8 C 0,0 C 83 % 85 % 0 % 1022,2 hPa 0,0 l/m 0,0 km/h (0 Bft) O 90 0 min 0,0 UV-I 10,7 C 12,8 C 0,0 km/h (0 Bft)
07.04.2011 03:25 13,3 C 14,3 C 12,7 C 13,1 C 12,7 C 0,0 C 83 % 86 % 0 % 1022,2 hPa 0,0 l/m 0,3 km/h (0 Bft) W-SW 247 0 min 0,0 UV-I 10,5 C 12,7 C 5,5 km/h (1 Bft)
07.04.2011 03:30 13,3 C 14,3 C 12,7 C 13,1 C 12,7 C 0,0 C 84 % 86 % 0 % 1022,2 hPa 0,0 l/m 1,3 km/h (1 Bft) S-SO 157 0 min 0,0 UV-I 10,7 C 12,7 C 5,1 km/h (1 Bft)
07.04.2011 03:35 13,2 C 14,3 C 12,7 C 13,1 C 12,8 C 0,0 C 84 % 86 % 0 % 1021,9 hPa 0,0 l/m 2,6 km/h (1 Bft) S-SO 157 0 min 0,0 UV-I 10,6 C 12,8 C 6,4 km/h (2 Bft)
07.04.2011 03:40 13,2 C 14,3 C 12,7 C 13,0 C 12,7 C 0,0 C 84 % 86 % 0 % 1021,9 hPa 0,0 l/m 2,7 km/h (1 Bft) SO 135 0 min 0,0 UV-I 10,6 C 12,7 C 5,6 km/h (1 Bft)
07.04.2011 03:45 13,2 C 14,2 C 12,7 C 13,1 C 12,8 C 0,0 C 84 % 86 % 0 % 1021,9 hPa 0,0 l/m 3,1 km/h (1 Bft) SO 135 0 min 0,0 UV-I 10,6 C 12,8 C 7,7 km/h (2 Bft)
07.04.2011 03:50 13,2 C 14,3 C 12,7 C 13,1 C 12,8 C 0,0 C 84 % 86 % 0 % 1021,9 hPa 0,0 l/m 3,1 km/h (1 Bft) S-SW 202 0 min 0,0 UV-I 10,6 C 12,8 C 2,7 km/h (1 Bft)
07.04.2011 03:55 13,3 C 14,3 C 12,7 C 13,1 C 12,7 C 0,0 C 84 % 86 % 0 % 1021,4 hPa 0,0 l/m 1,6 km/h (1 Bft) NW 315 0 min 0,0 UV-I 10,7 C 12,7 C 0,0 km/h (0 Bft)
07.04.2011 04:00 13,1 C 14,3 C 12,4 C 12,9 C 12,5 C 0,0 C 84 % 86 % 0 % 1021,4 hPa 0,0 l/m 1,0 km/h (0 Bft) NW 315 0 min 0,0 UV-I 10,5 C 12,5 C 0,0 km/h (0 Bft)
07.04.2011 04:09 12,9 C 14,4 C 12,2 C 12,6 C 12,1 C 0,0 C 84 % 86 % 0 % 1021,4 hPa 0,0 l/m 0,2 km/h (0 Bft) N 0 0 min 0,0 UV-I 10,3 C 12,1 C 0,0 km/h (0 Bft)
07.04.2011 04:15 12,8 C 14,5 C 12,0 C 12,5 C 12,0 C 0,0 C 84 % 86 % 0 % 1021,6 hPa 0,0 l/m 0,2 km/h (0 Bft) O-NO 67 0 min 0,0 UV-I 10,2 C 12,0 C 0,0 km/h (0 Bft)
07.04.2011 04:20 12,9 C 14,5 C 12,0 C 12,6 C 11,9 C 0,0 C 84 % 87 % 0 % 1021,6 hPa 0,0 l/m 0,2 km/h (0 Bft) NO 45 0 min 0,0 UV-I 10,3 C 11,9 C 0,0 km/h (0 Bft)
07.04.2011 04:25 12,7 C 14,4 C 11,8 C 12,4 C 11,7 C 0,0 C 84 % 87 % 0 % 1021,6 hPa 0,0 l/m 0,2 km/h (0 Bft) O 90 0 min 0,0 UV-I 10,1 C 11,7 C 0,0 km/h (0 Bft)
07.04.2011 04:30 12,7 C 14,4 C 11,9 C 12,4 C 11,7 C 0,0 C 85 % 87 % 0 % 1021,6 hPa 0,0 l/m 0,3 km/h (0 Bft) O-NO 67 0 min 0,0 UV-I 10,2 C 11,7 C 0,0 km/h (0 Bft)
07.04.2011 04:35 12,7 C 14,5 C 12,0 C 12,4 C 11,7 C 0,0 C 85 % 87 % 0 % 1020,9 hPa 0,0 l/m 0,5 km/h (0 Bft) O 90 0 min 0,0 UV-I 10,2 C 11,7 C 0,0 km/h (0 Bft)
07.04.2011 04:40 12,7 C 14,5 C 12,0 C 12,4 C 11,8 C 0,0 C 85 % 87 % 0 % 1020,9 hPa 0,0 l/m 0,3 km/h (0 Bft) N-NO 22 0 min 0,0 UV-I 10,2 C 11,8 C 0,0 km/h (0 Bft)
07.04.2011 04:45 12,6 C 14,4 C 11,9 C 12,3 C 11,8 C 0,0 C 85 % 87 % 0 % 1020,9 hPa 0,0 l/m 1,0 km/h (0 Bft) SO 135 0 min 0,0 UV-I 10,1 C 11,8 C 2,4 km/h (1 Bft)
07.04.2011 04:50 12,6 C 14,4 C 12,1 C 12,4 C 12,0 C 0,0 C 85 % 87 % 0 % 1020,9 hPa 0,0 l/m 1,3 km/h (1 Bft) O-NO 67 0 min 0,0 UV-I 10,1 C 12,0 C 0,0 km/h (0 Bft)
07.04.2011 04:55 12,7 C 14,4 C 12,0 C 12,4 C 11,9 C 0,0 C 85 % 87 % 0 % 1020,7 hPa 0,0 l/m 1,1 km/h (1 Bft) N-NO 22 0 min 0,0 UV-I 10,2 C 11,9 C 3,2 km/h (1 Bft)
07.04.2011 05:00 12,8 C 14,4 C 12,1 C 12,5 C 12,0 C 0,0 C 85 % 88 % 0 % 1020,7 hPa 0,0 l/m 1,4 km/h (1 Bft) S 180 0 min 0,0 UV-I 10,3 C 12,0 C 2,1 km/h (1 Bft)
07.04.2011 05:10 12,7 C 14,4 C 11,9 C 12,5 C 12,1 C 0,0 C 85 % 87 % 0 % 1020,7 hPa 0,0 l/m 1,0 km/h (0 Bft) N 0 0 min 0,0 UV-I 10,2 C 12,1 C 0,0 km/h (0 Bft)
07.04.2011 05:15 12,5 C 14,4 C 11,9 C 12,3 C 12,0 C 0,0 C 85 % 87 % 0 % 1020,4 hPa 0,0 l/m 0,6 km/h (0 Bft) O-NO 67 0 min 0,0 UV-I 10,0 C 12,0 C 0,0 km/h (0 Bft)
07.04.2011 05:20 12,5 C 14,5 C 11,9 C 12,3 C 11,9 C 0,0 C 85 % 87 % 0 % 1020,4 hPa 0,0 l/m 0,3 km/h (0 Bft) O-NO 67 0 min 0,0 UV-I 10,0 C 11,9 C 0,0 km/h (0 Bft)
07.04.2011 05:25 12,5 C 14,4 C 11,8 C 12,3 C 11,8 C 0,0 C 86 % 88 % 0 % 1020,4 hPa 0,0 l/m 0,2 km/h (0 Bft) W-SW 247 0 min 0,0 UV-I 10,2 C 11,8 C 0,0 km/h (0 Bft)
07.04.2011 05:30 12,5 C 14,5 C 11,7 C 12,2 C 11,6 C 0,0 C 85 % 88 % 0 % 1020,4 hPa 0,0 l/m 0,2 km/h (0 Bft) NO 45 0 min 0,0 UV-I 10,0 C 11,6 C 0,0 km/h (0 Bft)
07.04.2011 05:35 12,5 C 14,5 C 11,6 C 12,1 C 11,4 C 0,0 C 86 % 88 % 0 % 1020,2 hPa 0,0 l/m 0,0 km/h (0 Bft) NW 315 0 min 0,0 UV-I 10,2 C 11,4 C 0,0 km/h (0 Bft)
07.04.2011 05:40 12,3 C 14,5 C 11,5 C 11,9 C 11,2 C 0,0 C 86 % 88 % 0 % 1020,2 hPa 0,0 l/m 0,0 km/h (0 Bft) SO 135 0 min 0,0 UV-I 10,0 C 11,2 C 0,0 km/h (0 Bft)
07.04.2011 05:45 12,2 C 14,6 C 11,3 C 11,8 C 10,9 C 0,0 C 86 % 88 % 0 % 1020,2 hPa 0,0 l/m 0,0 km/h (0 Bft) S-SW 202 0 min 0,0 UV-I 9,9 C 10,9 C 0,0 km/h (0 Bft)
07.04.2011 05:50 12,2 C 14,6 C 11,2 C 11,7 C 10,8 C 0,0 C 86 % 88 % 0 % 1020,2 hPa 0,0 l/m 0,0 km/h (0 Bft) S 180 0 min 0,0 UV-I 9,9 C 10,8 C 0,0 km/h (0 Bft)
07.04.2011 05:55 12,1 C 14,6 C 11,1 C 11,6 C 10,7 C 0,0 C 86 % 89 % 0 % 1020,2 hPa 0,0 l/m 0,0 km/h (0 Bft) O-SO 112 0 min 0,0 UV-I 9,8 C 10,7 C 0,0 km/h (0 Bft)
07.04.2011 06:00 12,1 C 14,6 C 11,0 C 11,6 C 10,7 C 0,0 C 86 % 88 % 0 % 1020,2 hPa 0,0 l/m 0,0 km/h (0 Bft) O-SO 112 0 min 0,0 UV-I 9,8 C 10,7 C 0,0 km/h (0 Bft)
07.04.2011 06:09 12,1 C 14,5 C 11,0 C 11,6 C 10,6 C 0,0 C 87 % 89 % 0 % 1020,2 hPa 0,0 l/m 0,0 km/h (0 Bft) N 0 0 min 0,0 UV-I 10,0 C 10,6 C 0,0 km/h (0 Bft)
07.04.2011 06:15 11,9 C 14,5 C 10,9 C 11,5 C 10,6 C 0,0 C 87 % 89 % 0 % 1020,1 hPa 0,0 l/m 0,0 km/h (0 Bft) O-NO 67 0 min 0,0 UV-I 9,8 C 10,6 C 0,0 km/h (0 Bft)
07.04.2011 06:20 11,9 C 14,5 C 10,8 C 11,5 C 10,6 C 0,0 C 87 % 89 % 0 % 1020,1 hPa 0,0 l/m 0,0 km/h (0 Bft) NO 45 0 min 0,0 UV-I 9,8 C 10,6 C 0,0 km/h (0 Bft)
07.04.2011 06:25 11,9 C 14,5 C 10,8 C 11,5 C 10,6 C 0,0 C 87 % 89 % 0 % 1020,1 hPa 0,0 l/m 0,0 km/h (0 Bft) N-NO 22 0 min 0,0 UV-I 9,8 C 10,6 C 0,0 km/h (0 Bft)
07.04.2011 06:30 12,0 C 14,5 C 10,7 C 11,5 C 10,6 C 0,0 C 87 % 89 % 0 % 1020,1 hPa 0,0 l/m 0,0 km/h (0 Bft) O 90 0 min 0,0 UV-I 9,9 C 10,6 C 0,0 km/h (0 Bft)
07.04.2011 06:35 12,0 C 14,5 C 10,7 C 11,6 C 10,8 C 0,0 C 87 % 89 % 0 % 1019,9 hPa 0,0 l/m 0,2 km/h (0 Bft) N-NO 22 0 min 0,0 UV-I 9,9 C 10,8 C 0,0 km/h (0 Bft)
07.04.2011 06:40 12,0 C 14,5 C 10,7 C 11,6 C 10,9 C 0,0 C 87 % 89 % 0 % 1019,9 hPa 0,0 l/m 0,2 km/h (0 Bft) O-NO 67 0 min 0,0 UV-I 9,9 C 10,9 C 0,0 km/h (0 Bft)
07.04.2011 06:45 11,9 C 14,5 C 10,7 C 11,6 C 11,0 C 0,0 C 87 % 89 % 0 % 1019,9 hPa 0,0 l/m 0,3 km/h (0 Bft) NO 45 0 min 0,0 UV-I 9,8 C 11,0 C 0,0 km/h (0 Bft)
07.04.2011 06:50 11,9 C 14,5 C 10,7 C 11,6 C 11,0 C 0,0 C 87 % 89 % 0 % 1019,9 hPa 0,0 l/m 0,3 km/h (0 Bft) N-NO 22 0 min 0,0 UV-I 9,8 C 11,0 C 0,0 km/h (0 Bft)
07.04.2011 06:55 11,8 C 14,5 C 10,7 C 11,5 C 10,9 C 0,0 C 87 % 89 % 0 % 1019,9 hPa 0,0 l/m 0,0 km/h (0 Bft) O 90 0 min 0,0 UV-I 9,7 C 10,9 C 0,0 km/h (0 Bft)
07.04.2011 07:00 12,0 C 14,5 C 10,7 C 11,7 C 11,0 C 0,0 C 87 % 89 % 0 % 1019,9 hPa 0,0 l/m 0,0 km/h (0 Bft) N-NO 22 0 min 0,0 UV-I 9,9 C 11,0 C 0,0 km/h (0 Bft)
07.04.2011 07:09 12,5 C 14,3 C 10,7 C 12,1 C 11,4 C 0,0 C 87 % 89 % 0 % 1019,9 hPa 0,0 l/m 0,2 km/h (0 Bft) N 0 0 min 0,0 UV-I 10,4 C 11,4 C 0,0 km/h (0 Bft)
07.04.2011 07:15 13,2 C 14,2 C 10,7 C 12,7 C 11,8 C 0,0 C 86 % 89 % 0 % 1019,8 hPa 0,0 l/m 0,3 km/h (0 Bft) S 180 0 min 0,0 UV-I 10,9 C 11,8 C 0,0 km/h (0 Bft)
07.04.2011 07:20 14,1 C 14,2 C 10,7 C 13,6 C 12,6 C 0,0 C 84 % 89 % 0 % 1019,8 hPa 0,0 l/m 1,0 km/h (0 Bft) SW 225 0 min 0,0 UV-I 11,4 C 12,6 C 4,5 km/h (1 Bft)
07.04.2011 07:25 14,5 C 14,2 C 10,7 C 14,1 C 13,2 C 0,0 C 82 % 89 % 0 % 1019,8 hPa 0,0 l/m 1,9 km/h (1 Bft) SW 225 0 min 0,0 UV-I 11,5 C 13,2 C 4,0 km/h (1 Bft)
07.04.2011 07:30 14,2 C 14,1 C 10,7 C 13,9 C 13,4 C 0,0 C 82 % 89 % 0 % 1019,8 hPa 0,0 l/m 2,7 km/h (1 Bft) S-SO 157 0 min 0,0 UV-I 11,2 C 13,4 C 3,4 km/h (1 Bft)
07.04.2011 07:35 14,4 C 14,0 C 10,7 C 14,2 C 13,9 C 0,0 C 81 % 89 % 0 % 1020,1 hPa 0,0 l/m 2,9 km/h (1 Bft) O-SO 112 0 min 0,0 UV-I 11,2 C 13,9 C 8,5 km/h (2 Bft)
07.04.2011 07:40 14,5 C 13,9 C 10,7 C 14,9 C 14,9 C 0,4 C 81 % 89 % 11 % 1020,1 hPa 0,0 l/m 2,9 km/h (1 Bft) SO 135 0 min 0,0 UV-I 11,3 C 14,9 C 3,7 km/h (1 Bft)
07.04.2011 07:45 15,4 C 14,0 C 10,7 C 15,9 C 15,9 C 0,5 C 80 % 89 % 13 % 1020,1 hPa 0,0 l/m 2,9 km/h (1 Bft) S 180 0 min 0,0 UV-I 12,0 C 15,9 C 5,0 km/h (1 Bft)
07.04.2011 07:50 16,8 C 13,9 C 10,7 C 16,7 C 16,6 C 0,0 C 77 % 89 % 0 % 1020,1 hPa 0,0 l/m 2,7 km/h (1 Bft) S-SO 157 0 min 0,0 UV-I 12,7 C 16,6 C 4,3 km/h (1 Bft)
07.04.2011 07:55 16,7 C 13,9 C 10,7 C 17,4 C 17,4 C 0,7 C 75 % 89 % 18 % 1019,6 hPa 0,0 l/m 2,3 km/h (1 Bft) W-NW 292 0 min 0,0 UV-I 12,2 C 17,4 C 9,5 km/h (2 Bft)
07.04.2011 08:00 16,6 C 13,8 C 10,7 C 17,8 C 17,8 C 1,2 C 75 % 89 % 32 % 1019,6 hPa 0,0 l/m 2,1 km/h (1 Bft) O-SO 112 0 min 0,0 UV-I 12,1 C 17,8 C 3,1 km/h (1 Bft)
07.04.2011 08:09 15,9 C 13,8 C 13,1 C 18,7 C 18,7 C 2,8 C 76 % 88 % 74 % 1019,6 hPa 0,0 l/m 3,1 km/h (1 Bft) N 0 9 min 0,0 UV-I 11,7 C 18,7 C 11,7 km/h (2 Bft)
07.04.2011 08:15 15,5 C 13,7 C 13,1 C 18,9 C 18,9 C 3,4 C 77 % 88 % 89 % 1019,6 hPa 0,0 l/m 3,7 km/h (1 Bft) S 180 6 min 0,1 UV-I 11,5 C 18,9 C 12,9 km/h (3 Bft)
07.04.2011 08:20 15,5 C 13,8 C 13,1 C 19,0 C 19,0 C 3,5 C 77 % 88 % 92 % 1019,6 hPa 0,0 l/m 4,0 km/h (1 Bft) N-NW 337 5 min 0,1 UV-I 11,5 C 19,0 C 2,1 km/h (1 Bft)
07.04.2011 08:25 15,5 C 13,7 C 13,1 C 19,3 C 19,3 C 3,8 C 78 % 88 % 100 % 1019,6 hPa 0,0 l/m 3,7 km/h (1 Bft) W 270 5 min 0,1 UV-I 11,7 C 19,3 C 2,3 km/h (1 Bft)
07.04.2011 08:30 15,5 C 13,8 C 13,1 C 19,6 C 19,6 C 4,1 C 78 % 88 % 100 % 1019,6 hPa 0,0 l/m 3,1 km/h (1 Bft) SO 135 5 min 0,1 UV-I 11,7 C 19,6 C 5,1 km/h (1 Bft)
07.04.2011 08:35 15,6 C 13,8 C 13,1 C 19,9 C 19,9 C 4,3 C 78 % 88 % 100 % 1019,1 hPa 0,0 l/m 4,0 km/h (1 Bft) W-SW 247 5 min 0,2 UV-I 11,8 C 19,9 C 4,2 km/h (1 Bft)
07.04.2011 08:40 15,7 C 13,7 C 13,1 C 19,9 C 19,9 C 4,2 C 78 % 88 % 100 % 1019,1 hPa 0,0 l/m 5,1 km/h (1 Bft) SW 225 5 min 0,2 UV-I 11,9 C 19,9 C 8,9 km/h (2 Bft)
07.04.2011 08:45 15,9 C 13,7 C 13,1 C 19,9 C 19,9 C 4,0 C 78 % 88 % 100 % 1019,1 hPa 0,0 l/m 6,8 km/h (2 Bft) NO 45 5 min 0,2 UV-I 12,1 C 19,9 C 14,5 km/h (3 Bft)
07.04.2011 08:50 16,1 C 13,7 C 13,1 C 19,5 C 19,5 C 3,4 C 77 % 88 % 89 % 1019,1 hPa 0,0 l/m 6,8 km/h (2 Bft) W-SW 247 5 min 0,2 UV-I 12,1 C 19,5 C 13,0 km/h (3 Bft)
07.04.2011 08:55 16,3 C 13,7 C 13,1 C 19,5 C 19,5 C 3,2 C 77 % 88 % 84 % 1019,0 hPa 0,0 l/m 7,1 km/h (2 Bft) W 270 0 min 0,3 UV-I 12,3 C 19,5 C 15,6 km/h (3 Bft)
07.04.2011 09:00 16,4 C 13,7 C 13,1 C 19,7 C 19,7 C 3,3 C 76 % 88 % 87 % 1019,0 hPa 0,0 l/m 8,7 km/h (2 Bft) S-SO 157 5 min 0,3 UV-I 12,2 C 19,7 C 14,5 km/h (3 Bft)
07.04.2011 09:09 16,8 C 13,7 C 13,1 C 20,2 C 20,2 C 3,4 C 75 % 88 % 89 % 1019,0 hPa 0,0 l/m 8,4 km/h (2 Bft) N 0 9 min 0,4 UV-I 12,3 C 20,2 C 19,8 km/h (3 Bft)
07.04.2011 09:15 16,6 C 13,7 C 13,1 C 18,6 C 18,6 C 2,0 C 75 % 88 % 53 % 1018,8 hPa 0,0 l/m 9,0 km/h (2 Bft) S 180 0 min 0,4 UV-I 12,1 C 18,6 C 11,1 km/h (2 Bft)
07.04.2011 09:20 16,8 C 13,7 C 13,1 C 18,5 C 18,5 C 1,7 C 75 % 88 % 45 % 1018,8 hPa 0,0 l/m 9,5 km/h (2 Bft) SW 225 0 min 0,4 UV-I 12,3 C 18,5 C 12,4 km/h (3 Bft)
07.04.2011 09:25 17,2 C 13,7 C 13,1 C 19,5 C 19,5 C 2,3 C 75 % 88 % 61 % 1018,8 hPa 0,0 l/m 9,0 km/h (2 Bft) SO 135 0 min 0,7 UV-I 12,7 C 19,5 C 14,8 km/h (3 Bft)
07.04.2011 09:30 17,5 C 13,7 C 13,1 C 20,3 C 20,3 C 2,8 C 74 % 88 % 74 % 1018,8 hPa 0,0 l/m 10,3 km/h (2 Bft) SW 225 0 min 0,7 UV-I 12,8 C 20,3 C 23,8 km/h (4 Bft)
07.04.2011 09:35 17,6 C 13,7 C 13,1 C 20,2 C 20,2 C 2,6 C 73 % 88 % 68 % 1018,6 hPa 0,0 l/m 13,4 km/h (3 Bft) SW 225 0 min 0,7 UV-I 12,7 C 20,2 C 25,4 km/h (4 Bft)
07.04.2011 09:40 17,5 C 13,7 C 13,1 C 19,3 C 19,3 C 1,8 C 73 % 88 % 47 % 1018,6 hPa 0,0 l/m 14,3 km/h (3 Bft) SW 225 0 min 0,7 UV-I 12,6 C 19,3 C 14,0 km/h (3 Bft)
07.04.2011 09:45 17,5 C 13,7 C 13,1 C 18,8 C 18,6 C 1,3 C 73 % 88 % 34 % 1018,6 hPa 0,0 l/m 13,8 km/h (3 Bft) SW 225 0 min 0,6 UV-I 12,6 C 18,6 C 10,8 km/h (2 Bft)
07.04.2011 09:50 17,6 C 13,7 C 13,1 C 18,7 C 18,7 C 1,1 C 73 % 88 % 29 % 1018,6 hPa 0,0 l/m 11,6 km/h (2 Bft) W-SW 247 0 min 0,6 UV-I 12,7 C 18,7 C 11,1 km/h (2 Bft)
07.04.2011 09:55 17,8 C 13,7 C 13,1 C 18,8 C 18,8 C 1,0 C 73 % 88 % 26 % 1018,1 hPa 0,0 l/m 10,9 km/h (2 Bft) S-SW 202 0 min 0,9 UV-I 12,9 C 18,8 C 17,9 km/h (3 Bft)
07.04.2011 10:00 17,9 C 13,7 C 13,1 C 19,0 C 19,0 C 1,1 C 73 % 88 % 29 % 1018,1 hPa 0,0 l/m 10,9 km/h (2 Bft) S 180 0 min 0,9 UV-I 13,0 C 19,0 C 11,3 km/h (2 Bft)
07.04.2011 10:10 17,9 C 13,7 C 13,1 C 19,0 C 19,0 C 1,1 C 73 % 88 % 29 % 1018,1 hPa 0,0 l/m 9,8 km/h (2 Bft) N 0 0 min 0,8 UV-I 13,0 C 19,0 C 12,6 km/h (3 Bft)
07.04.2011 10:15 17,9 C 13,8 C 13,1 C 19,7 C 19,7 C 1,8 C 73 % 88 % 47 % 1018,0 hPa 0,0 l/m 11,3 km/h (2 Bft) N-NW 337 0 min 1,0 UV-I 13,0 C 19,7 C 3,4 km/h (1 Bft)
07.04.2011 10:20 18,1 C 13,8 C 13,1 C 20,6 C 20,6 C 2,5 C 73 % 88 % 66 % 1018,0 hPa 0,0 l/m 11,6 km/h (2 Bft) W-SW 247 0 min 1,0 UV-I 13,2 C 20,6 C 17,9 km/h (3 Bft)
07.04.2011 10:25 18,2 C 13,8 C 13,1 C 20,4 C 20,4 C 2,2 C 73 % 88 % 58 % 1018,0 hPa 0,0 l/m 11,4 km/h (2 Bft) SW 225 0 min 1,0 UV-I 13,3 C 20,4 C 25,4 km/h (4 Bft)
07.04.2011 10:30 18,3 C 13,8 C 13,1 C 20,8 C 20,8 C 2,5 C 73 % 88 % 66 % 1018,0 hPa 0,0 l/m 13,4 km/h (3 Bft) SW 225 0 min 1,0 UV-I 13,4 C 20,8 C 20,1 km/h (4 Bft)
07.04.2011 10:35 18,4 C 13,8 C 18,2 C 20,5 C 20,5 C 2,1 C 72 % 73 % 55 % 1017,7 hPa 0,0 l/m 14,6 km/h (3 Bft) W 270 0 min 1,1 UV-I 13,3 C 20,5 C 23,5 km/h (4 Bft)
07.04.2011 10:40 18,5 C 13,8 C 18,2 C 20,3 C 20,3 C 1,8 C 72 % 73 % 47 % 1017,7 hPa 0,0 l/m 15,3 km/h (3 Bft) W 270 0 min 1,1 UV-I 13,4 C 20,3 C 20,4 km/h (4 Bft)
07.04.2011 10:45 18,6 C 13,9 C 18,3 C 20,2 C 20,2 C 1,6 C 72 % 74 % 42 % 1017,7 hPa 0,0 l/m 15,6 km/h (3 Bft) S-SW 202 0 min 1,1 UV-I 13,4 C 20,2 C 17,2 km/h (3 Bft)
07.04.2011 10:50 18,8 C 13,9 C 18,3 C 20,2 C 20,2 C 1,4 C 72 % 74 % 37 % 1017,7 hPa 0,0 l/m 15,3 km/h (3 Bft) SW 225 0 min 1,1 UV-I 13,6 C 20,2 C 11,3 km/h (2 Bft)
07.04.2011 10:55 18,9 C 13,9 C 18,3 C 20,8 C 20,8 C 1,9 C 73 % 74 % 50 % 1017,4 hPa 0,0 l/m 13,4 km/h (3 Bft) SW 225 0 min 1,3 UV-I 13,9 C 20,8 C 18,3 km/h (3 Bft)
07.04.2011 11:00 19,1 C 13,9 C 18,3 C 20,8 C 20,8 C 1,7 C 72 % 74 % 45 % 1017,4 hPa 0,0 l/m 13,0 km/h (3 Bft) SW 225 0 min 1,3 UV-I 13,9 C 20,8 C 23,5 km/h (4 Bft)
07.04.2011 11:09 19,5 C 14,0 C 18,3 C 21,1 C 21,1 C 1,6 C 69 % 74 % 42 % 1017,4 hPa 0,0 l/m 19,2 km/h (3 Bft) N 0 0 min 1,3 UV-I 13,7 C 21,1 C 31,2 km/h (5 Bft)
07.04.2011 11:15 19,7 C 14,0 C 18,3 C 21,3 C 21,3 C 1,6 C 68 % 74 % 42 % 1017,2 hPa 0,0 l/m 19,5 km/h (3 Bft) W-SW 247 0 min 1,4 UV-I 13,6 C 21,3 C 34,3 km/h (5 Bft)
07.04.2011 11:20 19,8 C 14,0 C 18,3 C 21,2 C 21,2 C 1,4 C 67 % 74 % 37 % 1017,2 hPa 0,0 l/m 19,2 km/h (3 Bft) SW 225 0 min 1,4 UV-I 13,5 C 21,2 C 25,9 km/h (4 Bft)
07.04.2011 11:25 19,7 C 14,1 C 18,3 C 21,1 C 21,1 C 1,4 C 68 % 74 % 37 % 1017,2 hPa 0,0 l/m 16,3 km/h (3 Bft) S 180 0 min 1,1 UV-I 13,6 C 21,1 C 26,7 km/h (4 Bft)
07.04.2011 11:30 19,9 C 14,1 C 18,3 C 21,1 C 21,1 C 1,2 C 68 % 74 % 32 % 1017,2 hPa 0,0 l/m 16,3 km/h (3 Bft) SW 225 0 min 1,1 UV-I 13,8 C 21,1 C 25,9 km/h (4 Bft)
07.04.2011 11:35 20,0 C 14,1 C 18,3 C 21,3 C 21,3 C 1,3 C 67 % 74 % 34 % 1016,8 hPa 0,0 l/m 18,2 km/h (3 Bft) SW 225 0 min 1,4 UV-I 13,7 C 21,3 C 18,7 km/h (3 Bft)
07.04.2011 11:40 20,1 C 14,2 C 18,3 C 21,3 C 21,3 C 1,2 C 67 % 74 % 32 % 1016,8 hPa 0,0 l/m 18,7 km/h (3 Bft) SW 225 0 min 1,4 UV-I 13,8 C 21,3 C 15,3 km/h (3 Bft)
07.04.2011 11:45 20,4 C 14,2 C 18,3 C 21,9 C 21,9 C 1,5 C 65 % 74 % 39 % 1016,8 hPa 0,0 l/m 15,6 km/h (3 Bft) W-SW 247 0 min 1,5 UV-I 13,6 C 21,9 C 17,4 km/h (3 Bft)
07.04.2011 11:50 20,7 C 14,2 C 18,3 C 22,3 C 22,3 C 1,6 C 65 % 74 % 42 % 1016,8 hPa 0,0 l/m 15,4 km/h (3 Bft) SW 225 0 min 1,5 UV-I 13,9 C 22,3 C 20,9 km/h (4 Bft)
07.04.2011 11:55 20,6 C 14,2 C 18,3 C 22,3 C 22,3 C 1,7 C 65 % 74 % 45 % 1016,8 hPa 0,0 l/m 16,9 km/h (3 Bft) S 180 0 min 0,9 UV-I 13,8 C 22,3 C 15,4 km/h (3 Bft)
07.04.2011 12:00 20,5 C 14,3 C 18,3 C 22,0 C 22,0 C 1,5 C 65 % 74 % 39 % 1016,8 hPa 0,0 l/m 15,1 km/h (3 Bft) SW 225 0 min 0,9 UV-I 13,7 C 22,0 C 12,7 km/h (3 Bft)
07.04.2011 12:09 20,5 C 14,3 C 20,2 C 21,7 C 21,7 C 1,2 C 64 % 65 % 32 % 1016,8 hPa 0,0 l/m 14,0 km/h (3 Bft) N 0 0 min 0,7 UV-I 13,5 C 21,7 C 20,3 km/h (4 Bft)
07.04.2011 12:15 20,5 C 14,3 C 20,4 C 21,8 C 21,8 C 1,3 C 64 % 65 % 34 % 1016,9 hPa 0,0 l/m 14,3 km/h (3 Bft) S 180 0 min 1,3 UV-I 13,5 C 21,8 C 17,1 km/h (3 Bft)
07.04.2011 12:20 20,7 C 14,4 C 20,8 C 22,2 C 22,2 C 1,5 C 64 % 64 % 39 % 1016,9 hPa 0,0 l/m 14,6 km/h (3 Bft) W-SW 247 0 min 1,3 UV-I 13,6 C 22,2 C 19,5 km/h (3 Bft)
07.04.2011 12:25 20,6 C 14,4 C 21,0 C 22,6 C 22,6 C 2,0 C 64 % 63 % 53 % 1016,9 hPa 0,0 l/m 15,4 km/h (3 Bft) W-SW 247 0 min 1,6 UV-I 13,5 C 22,6 C 20,8 km/h (4 Bft)
07.04.2011 12:30 20,7 C 14,4 C 21,1 C 23,0 C 23,0 C 2,3 C 63 % 62 % 61 % 1016,9 hPa 0,0 l/m 16,6 km/h (3 Bft) W-SW 247 0 min 1,6 UV-I 13,4 C 23,0 C 13,7 km/h (3 Bft)
07.04.2011 12:35 20,9 C 14,5 C 21,6 C 23,2 C 23,2 C 2,3 C 63 % 61 % 61 % 1016,2 hPa 0,0 l/m 18,2 km/h (3 Bft) SW 225 0 min 2,0 UV-I 13,6 C 23,2 C 21,6 km/h (4 Bft)
07.04.2011 12:40 20,8 C 14,5 C 21,5 C 23,2 C 23,2 C 2,4 C 62 % 59 % 63 % 1016,2 hPa 0,0 l/m 18,8 km/h (3 Bft) S-SW 202 0 min 2,0 UV-I 13,2 C 23,2 C 30,4 km/h (5 Bft)
07.04.2011 12:45 20,9 C 14,5 C 21,5 C 23,3 C 23,3 C 2,4 C 61 % 61 % 63 % 1016,2 hPa 0,0 l/m 19,3 km/h (3 Bft) S-SO 157 0 min 2,3 UV-I 13,1 C 23,3 C 18,2 km/h (3 Bft)
07.04.2011 12:50 20,9 C 14,5 C 21,1 C 23,3 C 23,3 C 2,4 C 60 % 59 % 63 % 1016,2 hPa 0,0 l/m 20,4 km/h (4 Bft) SW 225 0 min 2,3 UV-I 12,8 C 23,3 C 26,9 km/h (4 Bft)
07.04.2011 12:55 20,9 C 14,6 C 21,1 C 23,3 C 23,3 C 2,4 C 59 % 59 % 63 % 1016,1 hPa 0,0 l/m 20,0 km/h (4 Bft) S-SW 202 0 min 2,4 UV-I 12,6 C 23,3 C 37,0 km/h (5 Bft)
07.04.2011 13:00 20,9 C 14,6 C 21,0 C 23,1 C 23,1 C 2,2 C 59 % 59 % 58 % 1016,1 hPa 0,0 l/m 20,4 km/h (4 Bft) S 180 0 min 2,4 UV-I 12,6 C 23,1 C 31,7 km/h (5 Bft)
07.04.2011 13:09 21,1 C 14,6 C 21,3 C 23,3 C 23,3 C 2,2 C 58 % 57 % 58 % 1016,1 hPa 0,0 l/m 20,9 km/h (4 Bft) N 0 0 min 2,5 UV-I 12,5 C 23,3 C 27,0 km/h (4 Bft)
07.04.2011 13:15 21,6 C 14,7 C 22,3 C 24,1 C 24,1 C 2,5 C 58 % 58 % 66 % 1015,6 hPa 0,0 l/m 19,0 km/h (3 Bft) SW 225 0 min 2,9 UV-I 13,0 C 24,1 C 19,0 km/h (3 Bft)
07.04.2011 13:20 21,6 C 14,7 C 22,4 C 24,3 C 24,3 C 2,7 C 58 % 56 % 71 % 1015,6 hPa 0,0 l/m 17,7 km/h (3 Bft) W 270 0 min 2,9 UV-I 13,0 C 24,3 C 21,7 km/h (4 Bft)
07.04.2011 13:25 21,4 C 14,7 C 21,6 C 23,3 C 23,3 C 1,9 C 55 % 55 % 50 % 1015,6 hPa 0,0 l/m 18,2 km/h (3 Bft) W-SW 247 0 min 1,6 UV-I 12,0 C 23,3 C 17,4 km/h (3 Bft)
07.04.2011 13:30 21,5 C 14,7 C 21,4 C 23,0 C 23,0 C 1,5 C 56 % 55 % 39 % 1015,6 hPa 0,0 l/m 18,7 km/h (3 Bft) W-SW 247 0 min 1,6 UV-I 12,3 C 23,0 C 23,3 km/h (4 Bft)
07.04.2011 13:35 21,2 C 14,8 C 21,4 C 22,9 C 22,9 C 1,7 C 57 % 56 % 45 % 1015,9 hPa 0,0 l/m 19,5 km/h (3 Bft) SW 225 0 min 1,9 UV-I 12,3 C 22,9 C 19,3 km/h (3 Bft)
07.04.2011 13:40 21,1 C 14,8 C 21,4 C 22,6 C 22,6 C 1,5 C 57 % 56 % 39 % 1015,9 hPa 0,0 l/m 19,0 km/h (3 Bft) W-SW 247 0 min 1,9 UV-I 12,2 C 22,6 C 29,3 km/h (5 Bft)
07.04.2011 13:45 21,2 C 14,8 C 21,6 C 23,1 C 23,1 C 1,9 C 56 % 55 % 50 % 1015,9 hPa 0,0 l/m 19,0 km/h (3 Bft) W-SW 247 0 min 2,3 UV-I 12,1 C 23,1 C 24,9 km/h (4 Bft)
07.04.2011 13:50 21,2 C 14,8 C 21,7 C 23,2 C 23,2 C 2,0 C 55 % 53 % 53 % 1015,9 hPa 0,0 l/m 20,8 km/h (4 Bft) SW 225 0 min 2,3 UV-I 11,8 C 23,2 C 22,9 km/h (4 Bft)
07.04.2011 13:55 21,2 C 14,8 C 21,8 C 23,2 C 23,2 C 2,0 C 55 % 53 % 53 % 1015,8 hPa 0,0 l/m 20,4 km/h (4 Bft) SW 225 0 min 2,1 UV-I 11,8 C 23,2 C 20,8 km/h (4 Bft)
07.04.2011 14:00 21,3 C 14,9 C 21,9 C 23,3 C 23,3 C 2,0 C 55 % 54 % 53 % 1015,8 hPa 0,0 l/m 19,0 km/h (3 Bft) S 180 0 min 2,1 UV-I 11,9 C 23,3 C 25,9 km/h (4 Bft)
07.04.2011 14:10 21,9 C 14,9 C 22,9 C 24,4 C 24,4 C 2,5 C 51 % 49 % 66 % 1015,8 hPa 0,0 l/m 17,5 km/h (3 Bft) N 0 0 min 2,3 UV-I 11,3 C 24,4 C 30,6 km/h (5 Bft)
07.04.2011 14:15 21,7 C 14,9 C 22,1 C 23,5 C 23,5 C 1,8 C 49 % 47 % 47 % 1015,9 hPa 0,0 l/m 18,8 km/h (3 Bft) SW 225 0 min 1,3 UV-I 10,5 C 23,5 C 21,1 km/h (4 Bft)
07.04.2011 14:20 21,5 C 15,0 C 21,9 C 23,0 C 23,0 C 1,5 C 51 % 50 % 39 % 1015,9 hPa 0,0 l/m 18,2 km/h (3 Bft) SW 225 0 min 1,3 UV-I 10,9 C 23,0 C 22,0 km/h (4 Bft)
07.04.2011 14:25 21,3 C 15,0 C 21,6 C 22,4 C 22,4 C 1,1 C 50 % 51 % 29 % 1015,9 hPa 0,0 l/m 15,4 km/h (3 Bft) W-SW 247 0 min 1,4 UV-I 10,4 C 22,4 C 15,9 km/h (3 Bft)
07.04.2011 14:30 21,3 C 15,0 C 21,6 C 22,3 C 22,3 C 1,0 C 49 % 48 % 26 % 1015,9 hPa 0,0 l/m 15,0 km/h (3 Bft) W-SW 247 0 min 1,4 UV-I 10,1 C 22,3 C 15,1 km/h (3 Bft)
07.04.2011 14:35 21,5 C 15,0 C 21,6 C 23,1 C 23,1 C 1,6 C 45 % 48 % 42 % 1015,8 hPa 0,0 l/m 13,4 km/h (3 Bft) SW 225 0 min 1,9 UV-I 9,1 C 23,1 C 16,9 km/h (3 Bft)
07.04.2011 14:40 21,5 C 15,0 C 23,7 C 23,7 C 23,7 C 2,2 C 45 % 42 % 58 % 1015,8 hPa 0,0 l/m 13,8 km/h (3 Bft) N-NW 337 0 min 1,9 UV-I 9,1 C 23,7 C 14,5 km/h (3 Bft)
07.04.2011 14:45 21,7 C 15,1 C 24,0 C 24,3 C 24,3 C 2,6 C 43 % 39 % 68 % 1015,8 hPa 0,0 l/m 15,6 km/h (3 Bft) SW 225 0 min 2,2 UV-I 8,6 C 24,3 C 20,3 km/h (4 Bft)
07.04.2011 14:50 21,7 C 15,1 C 24,3 C 24,3 C 24,3 C 2,6 C 43 % 39 % 68 % 1015,8 hPa 0,0 l/m 14,6 km/h (3 Bft) W-SW 247 0 min 2,2 UV-I 8,6 C 24,3 C 12,9 km/h (3 Bft)
07.04.2011 14:55 21,7 C 15,1 C 24,3 C 24,5 C 24,5 C 2,8 C 43 % 39 % 74 % 1015,6 hPa 0,0 l/m 14,2 km/h (3 Bft) W-SW 247 0 min 2,0 UV-I 8,6 C 24,5 C 22,0 km/h (4 Bft)
07.04.2011 15:00 21,6 C 15,1 C 24,3 C 24,6 C 24,6 C 3,0 C 42 % 39 % 79 % 1015,6 hPa 0,0 l/m 13,7 km/h (3 Bft) S-SW 202 0 min 2,0 UV-I 8,1 C 24,6 C 15,9 km/h (3 Bft)
07.04.2011 15:10 21,9 C 15,2 C 24,7 C 24,6 C 24,6 C 2,7 C 43 % 38 % 71 % 1015,6 hPa 0,0 l/m 16,3 km/h (3 Bft) N 0 0 min 1,9 UV-I 8,7 C 24,6 C 24,9 km/h (4 Bft)
07.04.2011 15:15 22,1 C 15,2 C 24,7 C 24,7 C 24,7 C 2,6 C 42 % 37 % 68 % 1015,7 hPa 0,0 l/m 16,7 km/h (3 Bft) SW 225 0 min 1,8 UV-I 8,6 C 24,7 C 17,1 km/h (3 Bft)
07.04.2011 15:20 22,2 C 15,2 C 24,7 C 24,9 C 24,9 C 2,7 C 41 % 37 % 71 % 1015,7 hPa 0,0 l/m 16,4 km/h (3 Bft) SW 225 0 min 1,8 UV-I 8,3 C 24,9 C 20,0 km/h (4 Bft)
07.04.2011 15:25 22,3 C 15,2 C 24,4 C 24,9 C 24,9 C 2,6 C 40 % 35 % 68 % 1015,7 hPa 0,0 l/m 15,8 km/h (3 Bft) S 180 0 min 1,4 UV-I 8,0 C 24,9 C 20,0 km/h (4 Bft)
07.04.2011 15:30 22,3 C 15,2 C 23,6 C 24,5 C 24,5 C 2,2 C 40 % 37 % 58 % 1015,7 hPa 0,0 l/m 16,3 km/h (3 Bft) W-SW 247 0 min 1,4 UV-I 8,0 C 24,5 C 25,3 km/h (4 Bft)
07.04.2011 15:35 22,3 C 15,3 C 23,9 C 24,7 C 24,7 C 2,4 C 41 % 38 % 63 % 1015,8 hPa 0,0 l/m 14,6 km/h (3 Bft) SW 225 0 min 1,2 UV-I 8,4 C 24,7 C 33,5 km/h (5 Bft)
07.04.2011 15:40 22,0 C 15,3 C 22,7 C 23,9 C 23,9 C 1,9 C 41 % 39 % 50 % 1015,8 hPa 0,0 l/m 15,0 km/h (3 Bft) W-SW 247 0 min 1,2 UV-I 8,1 C 23,9 C 18,2 km/h (3 Bft)
07.04.2011 15:45 21,7 C 15,3 C 21,9 C 22,9 C 22,9 C 1,2 C 41 % 41 % 32 % 1015,8 hPa 0,0 l/m 12,4 km/h (3 Bft) SO 135 0 min 0,7 UV-I 7,9 C 22,9 C 10,1 km/h (2 Bft)
07.04.2011 15:50 21,7 C 15,3 C 21,7 C 22,5 C 22,5 C 0,8 C 41 % 41 % 21 % 1015,8 hPa 0,0 l/m 9,8 km/h (2 Bft) SW 225 0 min 0,7 UV-I 7,9 C 22,5 C 15,1 km/h (3 Bft)
07.04.2011 15:55 21,7 C 15,3 C 21,6 C 22,5 C 22,5 C 0,8 C 41 % 41 % 21 % 1015,9 hPa 0,0 l/m 9,5 km/h (2 Bft) W-SW 247 0 min 0,8 UV-I 7,9 C 22,5 C 21,6 km/h (4 Bft)
07.04.2011 16:00 21,5 C 15,3 C 21,5 C 22,5 C 22,5 C 1,0 C 41 % 41 % 26 % 1015,9 hPa 0,0 l/m 9,5 km/h (2 Bft) S-SW 202 0 min 0,8 UV-I 7,7 C 22,5 C 13,2 km/h (3 Bft)
07.04.2011 16:09 21,1 C 15,3 C 20,7 C 21,6 C 21,6 C 0,5 C 41 % 42 % 13 % 1015,9 hPa 0,0 l/m 10,1 km/h (2 Bft) N 0 0 min 0,5 UV-I 7,3 C 21,6 C 13,7 km/h (3 Bft)
07.04.2011 16:15 20,9 C 15,3 C 20,5 C 21,3 C 21,3 C 0,4 C 42 % 44 % 11 % 1016,3 hPa 0,0 l/m 11,3 km/h (2 Bft) W-NW 292 0 min 0,4 UV-I 7,5 C 21,3 C 6,9 km/h (2 Bft)
07.04.2011 16:20 20,8 C 15,4 C 20,3 C 21,1 C 21,1 C 0,3 C 42 % 43 % 8 % 1016,3 hPa 0,0 l/m 10,9 km/h (2 Bft) SW 225 0 min 0,4 UV-I 7,4 C 21,1 C 15,8 km/h (3 Bft)
07.04.2011 16:25 20,8 C 15,4 C 20,3 C 21,1 C 21,1 C 0,3 C 42 % 43 % 8 % 1016,3 hPa 0,0 l/m 9,7 km/h (2 Bft) W 270 0 min 0,5 UV-I 7,4 C 21,1 C 15,1 km/h (3 Bft)
07.04.2011 16:30 20,7 C 15,4 C 20,0 C 21,2 C 21,2 C 0,5 C 43 % 45 % 13 % 1016,3 hPa 0,0 l/m 8,7 km/h (2 Bft) S-SO 157 0 min 0,5 UV-I 7,7 C 21,2 C 8,4 km/h (2 Bft)
07.04.2011 16:35 20,4 C 15,4 C 19,5 C 20,7 C 20,7 C 0,3 C 45 % 47 % 8 % 1016,4 hPa 0,0 l/m 7,1 km/h (2 Bft) W-SW 247 0 min 0,4 UV-I 8,1 C 20,7 C 4,5 km/h (1 Bft)
07.04.2011 16:40 20,4 C 15,4 C 19,3 C 20,5 C 20,5 C 0,1 C 45 % 47 % 3 % 1016,4 hPa 0,0 l/m 6,0 km/h (2 Bft) S 180 0 min 0,4 UV-I 8,1 C 20,5 C 8,9 km/h (2 Bft)
07.04.2011 16:45 20,3 C 15,4 C 19,2 C 20,4 C 20,4 C 0,1 C 46 % 49 % 3 % 1016,4 hPa 0,0 l/m 4,3 km/h (1 Bft) O-NO 67 0 min 0,4 UV-I 8,3 C 20,4 C 4,3 km/h (1 Bft)
07.04.2011 16:50 20,2 C 15,4 C 19,3 C 20,3 C 20,3 C 0,1 C 46 % 50 % 3 % 1016,4 hPa 0,0 l/m 4,3 km/h (1 Bft) W 270 0 min 0,4 UV-I 8,2 C 20,3 C 4,5 km/h (1 Bft)
07.04.2011 16:55 20,1 C 15,4 C 19,1 C 20,2 C 20,2 C 0,1 C 47 % 50 % 3 % 1016,6 hPa 0,0 l/m 5,1 km/h (1 Bft) W-SW 247 0 min 0,4 UV-I 8,4 C 20,2 C 13,7 km/h (3 Bft)
07.04.2011 17:00 19,9 C 15,4 C 19,1 C 20,2 C 20,2 C 0,3 C 48 % 50 % 8 % 1016,6 hPa 0,0 l/m 5,6 km/h (1 Bft) NW 315 0 min 0,4 UV-I 8,6 C 20,2 C 11,4 km/h (2 Bft)
07.04.2011 17:10 19,5 C 15,5 C 18,4 C 19,6 C 19,6 C 0,1 C 49 % 52 % 3 % 1016,6 hPa 0,0 l/m 6,0 km/h (2 Bft) N 0 0 min 0,3 UV-I 8,5 C 19,6 C 11,9 km/h (2 Bft)
07.04.2011 17:15 19,1 C 15,5 C 18,1 C 19,1 C 19,0 C 0,0 C 50 % 54 % 0 % 1016,9 hPa 0,0 l/m 6,1 km/h (2 Bft) S-SO 157 0 min 0,1 UV-I 8,4 C 19,0 C 10,1 km/h (2 Bft)
07.04.2011 17:20 18,9 C 15,5 C 17,7 C 18,8 C 18,5 C 0,0 C 51 % 56 % 0 % 1016,9 hPa 0,0 l/m 6,4 km/h (2 Bft) S-SO 157 0 min 0,1 UV-I 8,5 C 18,5 C 0,0 km/h (0 Bft)
07.04.2011 17:25 18,7 C 15,5 C 17,4 C 18,5 C 18,1 C 0,0 C 53 % 57 % 0 % 1016,9 hPa 0,0 l/m 6,8 km/h (2 Bft) SW 225 0 min 0,1 UV-I 8,9 C 18,1 C 10,0 km/h (2 Bft)
07.04.2011 17:30 18,5 C 15,5 C 17,2 C 18,2 C 17,7 C 0,0 C 54 % 58 % 0 % 1016,9 hPa 0,0 l/m 5,8 km/h (2 Bft) NO 45 0 min 0,1 UV-I 9,0 C 17,7 C 9,7 km/h (2 Bft)
07.04.2011 17:35 18,3 C 15,5 C 17,0 C 18,1 C 17,6 C 0,0 C 55 % 59 % 0 % 1017,2 hPa 0,0 l/m 5,8 km/h (2 Bft) S-SW 202 0 min 0,1 UV-I 9,1 C 17,6 C 10,0 km/h (2 Bft)
07.04.2011 17:40 18,3 C 15,5 C 16,8 C 18,0 C 17,4 C 0,0 C 56 % 61 % 0 % 1017,2 hPa 0,0 l/m 6,4 km/h (2 Bft) W 270 0 min 0,1 UV-I 9,4 C 17,4 C 10,9 km/h (2 Bft)
07.04.2011 17:45 18,0 C 15,6 C 16,7 C 17,8 C 17,4 C 0,0 C 57 % 62 % 0 % 1017,2 hPa 0,0 l/m 6,6 km/h (2 Bft) S 180 0 min 0,1 UV-I 9,4 C 17,4 C 8,7 km/h (2 Bft)
07.04.2011 17:50 18,1 C 15,6 C 16,6 C 17,8 C 17,2 C 0,0 C 58 % 63 % 0 % 1017,2 hPa 0,0 l/m 7,1 km/h (2 Bft) W-SW 247 0 min 0,1 UV-I 9,7 C 17,2 C 8,4 km/h (2 Bft)
07.04.2011 17:55 17,9 C 15,6 C 16,5 C 17,6 C 17,1 C 0,0 C 58 % 64 % 0 % 1017,0 hPa 0,0 l/m 6,0 km/h (2 Bft) NW 315 0 min 0,1 UV-I 9,5 C 17,1 C 4,8 km/h (1 Bft)
07.04.2011 18:00 17,9 C 15,6 C 16,5 C 17,6 C 17,1 C 0,0 C 59 % 64 % 0 % 1017,0 hPa 0,0 l/m 5,3 km/h (1 Bft) O-SO 112 0 min 0,1 UV-I 9,8 C 17,1 C 7,4 km/h (2 Bft)
07.04.2011 18:09 17,4 C 15,6 C 16,1 C 17,2 C 16,7 C 0,0 C 61 % 67 % 0 % 1017,0 hPa 0,0 l/m 7,2 km/h (2 Bft) N 0 0 min 0,1 UV-I 9,8 C 16,7 C 8,2 km/h (2 Bft)
07.04.2011 18:15 17,1 C 15,6 C 15,7 C 16,8 C 16,3 C 0,0 C 62 % 68 % 0 % 1017,1 hPa 0,0 l/m 7,1 km/h (2 Bft) W-SW 247 0 min 0,0 UV-I 9,8 C 16,3 C 5,8 km/h (2 Bft)
07.04.2011 18:20 16,9 C 15,6 C 15,5 C 16,6 C 16,0 C 0,0 C 63 % 69 % 0 % 1017,1 hPa 0,0 l/m 6,4 km/h (2 Bft) W-SW 247 0 min 0,0 UV-I 9,8 C 16,0 C 7,7 km/h (2 Bft)
07.04.2011 18:25 16,7 C 15,7 C 15,2 C 16,3 C 15,6 C 0,0 C 64 % 70 % 0 % 1017,1 hPa 0,0 l/m 6,9 km/h (2 Bft) W 270 0 min 0,0 UV-I 9,9 C 15,6 C 13,2 km/h (3 Bft)
07.04.2011 18:30 16,5 C 15,7 C 15,1 C 16,1 C 15,3 C 0,0 C 64 % 70 % 0 % 1017,1 hPa 0,0 l/m 8,2 km/h (2 Bft) O 90 0 min 0,0 UV-I 9,7 C 15,3 C 4,5 km/h (1 Bft)
07.04.2011 18:35 16,4 C 15,7 C 15,1 C 16,0 C 15,1 C 0,0 C 65 % 71 % 0 % 1017,5 hPa 0,0 l/m 7,6 km/h (2 Bft) W-SW 247 0 min 0,0 UV-I 9,8 C 15,1 C 13,4 km/h (3 Bft)
07.04.2011 18:40 16,3 C 15,7 C 14,9 C 15,9 C 15,0 C 0,0 C 66 % 71 % 0 % 1017,5 hPa 0,0 l/m 5,6 km/h (1 Bft) S-SW 202 0 min 0,0 UV-I 9,9 C 15,0 C 9,3 km/h (2 Bft)
07.04.2011 18:45 16,2 C 15,6 C 14,8 C 15,8 C 14,9 C 0,0 C 66 % 72 % 0 % 1017,5 hPa 0,0 l/m 6,0 km/h (2 Bft) SO 135 0 min 0,0 UV-I 9,8 C 14,9 C 6,4 km/h (2 Bft)
07.04.2011 18:50 16,0 C 15,6 C 14,7 C 15,6 C 14,9 C 0,0 C 66 % 72 % 0 % 1017,5 hPa 0,0 l/m 6,1 km/h (2 Bft) S 180 0 min 0,0 UV-I 9,7 C 14,9 C 8,9 km/h (2 Bft)
07.04.2011 18:55 15,8 C 15,6 C 14,5 C 15,4 C 14,7 C 0,0 C 67 % 72 % 0 % 1017,6 hPa 0,0 l/m 6,1 km/h (2 Bft) W-SW 247 0 min 0,0 UV-I 9,7 C 14,7 C 20,6 km/h (4 Bft)
07.04.2011 19:00 15,8 C 15,6 C 14,5 C 15,4 C 14,6 C 0,0 C 67 % 72 % 0 % 1017,6 hPa 0,0 l/m 6,1 km/h (2 Bft) N-NW 337 0 min 0,0 UV-I 9,7 C 14,6 C 5,5 km/h (1 Bft)
07.04.2011 19:09 15,5 C 15,6 C 14,2 C 15,1 C 14,4 C 0,0 C 67 % 73 % 0 % 1017,6 hPa 0,0 l/m 5,1 km/h (1 Bft) N 0 0 min 0,0 UV-I 9,4 C 14,4 C 8,2 km/h (2 Bft)
07.04.2011 19:15 15,5 C 15,6 C 14,1 C 15,1 C 14,2 C 0,0 C 67 % 73 % 0 % 1018,0 hPa 0,0 l/m 5,3 km/h (1 Bft) O-SO 112 0 min 0,0 UV-I 9,4 C 14,2 C 5,5 km/h (1 Bft)
07.04.2011 19:20 15,3 C 15,6 C 14,1 C 14,9 C 14,1 C 0,0 C 68 % 73 % 0 % 1018,0 hPa 0,0 l/m 6,3 km/h (2 Bft) S 180 0 min 0,0 UV-I 9,4 C 14,1 C 10,3 km/h (2 Bft)
07.04.2011 19:25 15,1 C 15,6 C 13,9 C 14,7 C 13,9 C 0,0 C 69 % 74 % 0 % 1018,0 hPa 0,0 l/m 6,3 km/h (2 Bft) W-NW 292 0 min 0,0 UV-I 9,5 C 13,9 C 7,6 km/h (2 Bft)
07.04.2011 19:30 14,9 C 15,6 C 13,6 C 14,5 C 13,7 C 0,0 C 69 % 74 % 0 % 1018,0 hPa 0,0 l/m 6,0 km/h (2 Bft) S-SW 202 0 min 0,0 UV-I 9,3 C 13,7 C 7,1 km/h (2 Bft)
07.04.2011 19:35 14,8 C 15,6 C 13,3 C 14,3 C 13,2 C 0,0 C 69 % 74 % 0 % 1018,0 hPa 0,0 l/m 6,6 km/h (2 Bft) S-SO 157 0 min 0,0 UV-I 9,2 C 13,2 C 9,2 km/h (2 Bft)
07.04.2011 19:40 14,6 C 15,6 C 13,2 C 14,0 C 12,9 C 0,0 C 69 % 75 % 0 % 1018,0 hPa 0,0 l/m 7,4 km/h (2 Bft) S-SO 157 0 min 0,0 UV-I 9,0 C 12,9 C 11,1 km/h (2 Bft)
07.04.2011 19:44 14,4 C 15,6 C 13,0 C 13,8 C 12,7 C 0,0 C 69 % 75 % 0 % 1018,0 hPa 0,0 l/m 6,9 km/h (2 Bft) S 180 0 min 0,0 UV-I 8,8 C 12,7 C 10,5 km/h (2 Bft)
07.04.2011 19:50 14,4 C 15,7 C 13,0 C 13,9 C 12,8 C 0,0 C 69 % 75 % 0 % 1018,0 hPa 0,0 l/m 6,0 km/h (2 Bft) S-SW 202 0 min 0,0 UV-I 8,8 C 12,8 C 9,5 km/h (2 Bft)
07.04.2011 19:55 14,3 C 15,6 C 12,9 C 13,7 C 12,5 C 0,0 C 70 % 76 % 0 % 1018,4 hPa 0,0 l/m 6,6 km/h (2 Bft) W 270 0 min 0,0 UV-I 8,9 C 12,5 C 8,2 km/h (2 Bft)
07.04.2011 20:00 14,0 C 15,6 C 12,8 C 13,5 C 12,6 C 0,0 C 70 % 76 % 0 % 1018,4 hPa 0,0 l/m 6,1 km/h (2 Bft) SW 225 0 min 0,0 UV-I 8,6 C 12,6 C 8,0 km/h (2 Bft)
07.04.2011 20:09 13,8 C 15,6 C 12,6 C 13,3 C 12,4 C 0,0 C 70 % 76 % 0 % 1018,4 hPa 0,0 l/m 5,0 km/h (1 Bft) N 0 0 min 0,0 UV-I 8,4 C 12,4 C 4,8 km/h (1 Bft)
07.04.2011 20:15 13,8 C 15,6 C 12,4 C 13,3 C 12,4 C 0,0 C 69 % 75 % 0 % 1018,5 hPa 0,0 l/m 5,3 km/h (1 Bft) SW 225 0 min 0,0 UV-I 8,2 C 12,4 C 10,9 km/h (2 Bft)
07.04.2011 20:20 13,6 C 15,6 C 12,4 C 13,1 C 12,1 C 0,0 C 69 % 74 % 0 % 1018,5 hPa 0,0 l/m 6,3 km/h (2 Bft) NO 45 0 min 0,0 UV-I 8,0 C 12,1 C 3,1 km/h (1 Bft)
07.04.2011 20:25 13,7 C 15,5 C 12,3 C 13,1 C 12,0 C 0,0 C 69 % 74 % 0 % 1018,5 hPa 0,0 l/m 6,3 km/h (2 Bft) SW 225 0 min 0,0 UV-I 8,1 C 12,0 C 8,9 km/h (2 Bft)
07.04.2011 20:30 13,5 C 15,5 C 12,2 C 13,0 C 12,1 C 0,0 C 69 % 74 % 0 % 1018,5 hPa 0,0 l/m 5,8 km/h (2 Bft) SO 135 0 min 0,0 UV-I 7,9 C 12,1 C 4,5 km/h (1 Bft)
07.04.2011 20:35 13,5 C 15,5 C 12,3 C 13,0 C 12,1 C 0,0 C 69 % 74 % 0 % 1018,9 hPa 0,0 l/m 5,6 km/h (1 Bft) SO 135 0 min 0,0 UV-I 7,9 C 12,1 C 7,2 km/h (2 Bft)
07.04.2011 20:40 13,5 C 15,5 C 12,1 C 13,1 C 12,2 C 0,0 C 69 % 75 % 0 % 1018,9 hPa 0,0 l/m 5,5 km/h (1 Bft) S 180 0 min 0,0 UV-I 7,9 C 12,2 C 7,6 km/h (2 Bft)
07.04.2011 20:45 13,3 C 15,5 C 12,1 C 12,9 C 12,0 C 0,0 C 70 % 75 % 0 % 1018,9 hPa 0,0 l/m 5,5 km/h (1 Bft) W-SW 247 0 min 0,0 UV-I 7,9 C 12,0 C 5,5 km/h (1 Bft)
07.04.2011 20:50 13,2 C 15,5 C 12,0 C 12,8 C 12,1 C 0,0 C 70 % 75 % 0 % 1018,9 hPa 0,0 l/m 5,0 km/h (1 Bft) S-SO 157 0 min 0,0 UV-I 7,9 C 12,1 C 2,7 km/h (1 Bft)
07.04.2011 20:55 13,2 C 15,5 C 12,0 C 12,8 C 11,9 C 0,0 C 70 % 75 % 0 % 1019,3 hPa 0,0 l/m 5,3 km/h (1 Bft) NW 315 0 min 0,0 UV-I 7,9 C 11,9 C 5,6 km/h (1 Bft)
07.04.2011 21:00 13,1 C 15,4 C 11,9 C 12,7 C 11,9 C 0,0 C 70 % 75 % 0 % 1019,3 hPa 0,0 l/m 4,8 km/h (1 Bft) S 180 0 min 0,0 UV-I 7,8 C 11,9 C 7,4 km/h (2 Bft)
07.04.2011 21:10 12,8 C 15,4 C 11,7 C 12,3 C 11,2 C 0,0 C 69 % 74 % 0 % 1019,3 hPa 0,0 l/m 6,4 km/h (2 Bft) N 0 0 min 0,0 UV-I 7,3 C 11,2 C 4,2 km/h (1 Bft)
07.04.2011 21:15 12,9 C 15,4 C 11,6 C 12,3 C 11,1 C 0,0 C 69 % 74 % 0 % 1019,5 hPa 0,0 l/m 6,0 km/h (2 Bft) O 90 0 min 0,0 UV-I 7,4 C 11,1 C 6,3 km/h (2 Bft)
07.04.2011 21:20 12,7 C 15,4 C 11,6 C 12,1 C 11,0 C 0,0 C 69 % 74 % 0 % 1019,5 hPa 0,0 l/m 6,3 km/h (2 Bft) S-SO 157 0 min 0,0 UV-I 7,2 C 11,0 C 4,0 km/h (1 Bft)
07.04.2011 21:25 12,5 C 15,3 C 11,5 C 12,0 C 10,9 C 0,0 C 68 % 73 % 0 % 1019,5 hPa 0,0 l/m 6,0 km/h (2 Bft) NW 315 0 min 0,0 UV-I 6,8 C 10,9 C 5,3 km/h (1 Bft)
07.04.2011 21:30 12,4 C 15,3 C 11,3 C 11,8 C 10,6 C 0,0 C 68 % 72 % 0 % 1019,5 hPa 0,0 l/m 6,1 km/h (2 Bft) SW 225 0 min 0,0 UV-I 6,7 C 10,6 C 11,7 km/h (2 Bft)
07.04.2011 21:35 12,4 C 15,3 C 11,3 C 11,8 C 10,5 C 0,0 C 67 % 72 % 0 % 1019,8 hPa 0,0 l/m 6,0 km/h (2 Bft) W-SW 247 0 min 0,0 UV-I 6,4 C 10,5 C 6,1 km/h (2 Bft)
07.04.2011 21:40 12,3 C 15,3 C 11,2 C 11,6 C 10,3 C 0,0 C 67 % 72 % 0 % 1019,8 hPa 0,0 l/m 6,1 km/h (2 Bft) S-SO 157 0 min 0,0 UV-I 6,4 C 10,3 C 10,6 km/h (2 Bft)
07.04.2011 21:45 12,2 C 15,2 C 11,1 C 11,6 C 10,3 C 0,0 C 66 % 71 % 0 % 1019,8 hPa 0,0 l/m 5,3 km/h (1 Bft) S-SW 202 0 min 0,0 UV-I 6,0 C 10,3 C 4,2 km/h (1 Bft)
07.04.2011 21:50 12,1 C 15,2 C 10,9 C 11,5 C 10,2 C 0,0 C 66 % 71 % 0 % 1019,8 hPa 0,0 l/m 5,3 km/h (1 Bft) SW 225 0 min 0,0 UV-I 5,9 C 10,2 C 6,1 km/h (2 Bft)
07.04.2011 21:55 11,9 C 15,2 C 10,9 C 11,3 C 10,1 C 0,0 C 66 % 70 % 0 % 1019,6 hPa 0,0 l/m 5,5 km/h (1 Bft) W-SW 247 0 min 0,0 UV-I 5,8 C 10,1 C 8,0 km/h (2 Bft)
07.04.2011 22:00 11,8 C 15,2 C 10,9 C 11,2 C 10,0 C 0,0 C 66 % 71 % 0 % 1019,6 hPa 0,0 l/m 5,1 km/h (1 Bft) O-NO 67 0 min 0,0 UV-I 5,7 C 9,7 C 11,9 km/h (2 Bft)
07.04.2011 22:10 11,7 C 15,2 C 10,7 C 11,0 C 9,6 C 0,0 C 67 % 72 % 0 % 1019,6 hPa 0,0 l/m 6,1 km/h (2 Bft) N 0 0 min 0,0 UV-I 5,8 C 9,0 C 4,3 km/h (1 Bft)
07.04.2011 22:15 11,6 C 15,1 C 10,6 C 11,0 C 9,7 C 0,0 C 68 % 73 % 0 % 1020,0 hPa 0,0 l/m 5,1 km/h (1 Bft) N-NO 22 0 min 0,0 UV-I 5,9 C 9,4 C 6,3 km/h (2 Bft)
07.04.2011 22:20 11,6 C 15,1 C 10,5 C 11,0 C 9,7 C 0,0 C 68 % 72 % 0 % 1020,0 hPa 0,0 l/m 5,1 km/h (1 Bft) SW 225 0 min 0,0 UV-I 5,9 C 9,4 C 14,6 km/h (3 Bft)
07.04.2011 22:25 11,6 C 15,1 C 10,4 C 10,9 C 9,4 C 0,0 C 67 % 72 % 0 % 1020,0 hPa 0,0 l/m 6,3 km/h (2 Bft) N-NW 337 0 min 0,0 UV-I 5,7 C 8,7 C 12,4 km/h (3 Bft)
07.04.2011 22:30 11,5 C 15,1 C 10,5 C 10,8 C 9,4 C 0,0 C 68 % 72 % 0 % 1020,0 hPa 0,0 l/m 6,3 km/h (2 Bft) SO 135 0 min 0,0 UV-I 5,8 C 8,7 C 5,0 km/h (1 Bft)
07.04.2011 22:35 11,5 C 15,0 C 10,3 C 10,8 C 9,4 C 0,0 C 67 % 72 % 0 % 1020,2 hPa 0,0 l/m 5,1 km/h (1 Bft) S-SW 202 0 min 0,0 UV-I 5,6 C 9,0 C 5,0 km/h (1 Bft)
07.04.2011 22:40 11,4 C 15,0 C 10,3 C 10,7 C 9,4 C 0,0 C 67 % 71 % 0 % 1020,2 hPa 0,0 l/m 5,0 km/h (1 Bft) W-SW 247 0 min 0,0 UV-I 5,5 C 9,1 C 5,8 km/h (2 Bft)
07.04.2011 22:45 11,3 C 15,0 C 10,2 C 10,5 C 9,0 C 0,0 C 67 % 71 % 0 % 1020,2 hPa 0,0 l/m 6,6 km/h (2 Bft) SW 225 0 min 0,0 UV-I 5,4 C 8,2 C 6,0 km/h (2 Bft)
07.04.2011 22:50 11,2 C 15,0 C 10,3 C 10,5 C 9,0 C 0,0 C 67 % 71 % 0 % 1020,2 hPa 0,0 l/m 6,6 km/h (2 Bft) W-SW 247 0 min 0,0 UV-I 5,3 C 8,2 C 10,8 km/h (2 Bft)
07.04.2011 22:55 11,2 C 15,0 C 10,1 C 10,5 C 9,2 C 0,0 C 67 % 71 % 0 % 1020,2 hPa 0,0 l/m 5,6 km/h (1 Bft) N-NO 22 0 min 0,0 UV-I 5,3 C 8,7 C 5,0 km/h (1 Bft)
07.04.2011 23:00 11,1 C 14,9 C 10,0 C 10,5 C 9,2 C 0,0 C 66 % 71 % 0 % 1020,2 hPa 0,0 l/m 5,0 km/h (1 Bft) S 180 0 min 0,0 UV-I 5,0 C 8,8 C 6,1 km/h (2 Bft)
07.04.2011 23:09 11,0 C 14,9 C 9,9 C 10,3 C 8,9 C 0,0 C 66 % 70 % 0 % 1020,2 hPa 0,0 l/m 5,3 km/h (1 Bft) N 0 0 min 0,0 UV-I 4,9 C 8,4 C 7,2 km/h (2 Bft)
07.04.2011 23:15 11,0 C 14,9 C 9,9 C 10,3 C 8,8 C 0,0 C 65 % 69 % 0 % 1020,8 hPa 0,0 l/m 5,8 km/h (2 Bft) SW 225 0 min 0,0 UV-I 4,7 C 8,1 C 4,5 km/h (1 Bft)
07.04.2011 23:20 10,9 C 14,9 C 9,9 C 10,2 C 8,9 C 0,0 C 66 % 70 % 0 % 1020,8 hPa 0,0 l/m 5,1 km/h (1 Bft) NW 315 0 min 0,0 UV-I 4,8 C 8,5 C 7,1 km/h (2 Bft)
07.04.2011 23:25 10,9 C 14,8 C 9,7 C 10,3 C 9,2 C 0,0 C 66 % 70 % 0 % 1020,8 hPa 0,0 l/m 4,2 km/h (1 Bft) W-SW 247 0 min 0,0 UV-I 4,8 C 9,2 C 3,2 km/h (1 Bft)
07.04.2011 23:30 10,8 C 14,8 C 9,6 C 10,2 C 9,0 C 0,0 C 66 % 71 % 0 % 1020,8 hPa 0,0 l/m 4,2 km/h (1 Bft) W-SW 247 0 min 0,0 UV-I 4,7 C 9,0 C 4,0 km/h (1 Bft)
07.04.2011 23:35 10,8 C 14,8 C 9,6 C 10,1 C 8,8 C 0,0 C 66 % 71 % 0 % 1020,8 hPa 0,0 l/m 4,5 km/h (1 Bft) W-SW 247 0 min 0,0 UV-I 4,7 C 8,8 C 8,5 km/h (2 Bft)
07.04.2011 23:40 10,7 C 14,8 C 9,5 C 10,0 C 8,6 C 0,0 C 66 % 70 % 0 % 1020,8 hPa 0,0 l/m 5,1 km/h (1 Bft) NW 315 0 min 0,0 UV-I 4,6 C 8,1 C 10,1 km/h (2 Bft)
07.04.2011 23:45 10,6 C 14,8 C 9,5 C 10,0 C 8,9 C 0,0 C 66 % 70 % 0 % 1020,8 hPa 0,0 l/m 3,7 km/h (1 Bft) S 180 0 min 0,0 UV-I 4,5 C 8,9 C 3,5 km/h (1 Bft)
07.04.2011 23:50 10,6 C 14,8 C 9,5 C 10,0 C 8,7 C 0,0 C 65 % 69 % 0 % 1020,8 hPa 0,0 l/m 3,9 km/h (1 Bft) W-SW 247 0 min 0,0 UV-I 4,3 C 8,7 C 8,4 km/h (2 Bft)
07.04.2011 23:55 10,4 C 14,8 C 9,5 C 9,7 C 8,2 C 0,0 C 62 % 65 % 0 % 1020,8 hPa 0,0 l/m 5,6 km/h (1 Bft) S 180 0 min 0,0 UV-I 3,4 C 7,5 C 4,5 km/h (1 Bft)
_ Min-Zeit 23:55 08:15 23:40 23:55 23:55 00:00 15:25 15:25 00:00 13:15 - 00:00 - - - 00:00 23:55 23:55 00:00
Minimum _ 10,4 C 13,7 C 9,5 C 9,7 C 8,2 C 0,0 C 40 % 35 % 0 % 1015,6 hPa - 0,0 km/h (0 Bft) - - - 0,0 UV-I 3,4 C 7,5 C 0,0 km/h (0 Bft)
_ Max-Zeit 15:25 18:25 15:10 15:20 15:20 08:35 06:09 05:55 08:30 00:15 00:00 13:09 - - 08:09 13:15 10:55 15:20 12:55
Maximum _ 22,3 C 15,7 C 24,7 C 24,9 C 24,9 C 4,3 C 87 % 89 % 100 % 1023,8 hPa 0,0 l/m 20,9 km/h
N (4 Bft)
- - 9 min 2,9 UV-I 13,9 C 24,9 C 37,0 km/h
S-SW (5 Bft)
Durchschnitt _ 15,9 C 14,7 C 14,8 C 16,4 C 16,0 C 0,7 C 70 % 74 % 19 % 1019,1 hPa #0,0 l/m 6,9 km/h (2 Bft) SW - #1:04 h 1,1 UV-I 10,0 C 15,9 C 9,3 km/h (2 Bft)
2013 www.wetterstation-wechselburg.de